Wind_Speed
9 9 8 8 7 7 6 6 4 4 4 3 1 0 2 3 4 5 6 7 8 9 9 8 8 8 8 8 8 8 9 9 9 9 9 8 8 8 8 7 7 7 7 7 6 6 6 5 5
9 9 8 7 7 6 5 5 4 4 4 3 2 1 1 2 4 5 6 8 9 9 9 9 9 9 9 9 9 8 8 8 8 8 8 8 7 7 7 7 6 6 6 6 6 5 5 5 5
9 8 8 7 6 4 3 4 4 4 4 3 2 1 1 2 3 5 5 7 9 10 10 10 10 9 9 9 9 9 8 8 8 8 8 7 7 6 6 6 5 5 6 5 5 5 4 4 4
9 8 7 7 6 4 3 4 5 4 4 4 4 3 3 3 3 5 6 6 8 11 11 11 10 10 10 10 9 9 8 8 8 7 7 6 6 5 5 5 5 5 5 5 4 4 4 4 4
8 8 8 7 6 5 4 4 5 5 5 6 5 5 4 4 3 4 6 7 8 11 12 12 12 12 11 11 10 9 9 8 7 7 6 6 5 5 4 4 4 4 4 4 4 3 3 3 3
8 8 7 6 7 6 6 5 5 5 7 7 6 5 5 4 4 4 5 7 9 11 13 13 13 13 12 12 11 10 9 8 8 7 6 5 5 4 4 4 4 3 3 3 3 3 3 3 2
9 8 7 7 7 7 7 7 7 7 8 9 8 7 6 5 5 5 6 7 9 11 13 14 14 14 14 13 12 11 10 9 8 7 5 4 4 4 3 3 3 2 2 2 3 3 2 2 2
9 8 7 7 7 8 7 7 7 8 9 10 9 8 8 6 6 6 6 7 9 11 13 15 15 15 15 14 14 13 11 10 8 7 5 4 4 3 3 3 2 2 1 2 2 2 2 2 1
10 8 7 8 7 8 8 8 9 9 10 10 10 9 9 8 7 7 7 8 9 11 13 15 16 17 17 16 15 15 13 11 9 8 6 4 4 3 3 3 2 2 1 1 1 1 1 0 1
10 9 9 8 8 8 9 9 10 10 11 11 10 10 10 9 9 9 8 9 10 11 13 16 17 17 18 18 17 16 15 12 10 9 7 5 4 3 3 3 3 2 1 1 1 1 0 0 1
11 10 9 9 10 10 10 10 11 11 12 12 11 11 11 11 10 9 9 9 10 12 13 16 18 19 20 20 19 18 16 14 12 10 8 6 5 4 4 3 3 2 2 1 0 1 1 1 1
12 11 10 10 11 11 11 11 11 12 12 13 12 12 12 11 11 10 10 10 10 12 14 15 18 19 21 21 21 19 18 15 13 11 9 7 6 5 4 4 4 3 2 1 1 1 1 0 1
12 12 11 12 12 11 11 11 12 13 13 13 13 13 13 12 11 11 11 10 10 12 14 16 18 21 22 22 22 21 20 17 15 13 10 9 7 6 5 5 4 4 3 2 1 1 1 0 1
13 12 12 12 13 13 12 12 13 14 14 13 14 14 14 13 12 11 10 11 12 12 14 17 18 21 23 23 23 22 21 19 17 14 12 10 9 8 7 6 6 5 3 2 2 1 1 1 1
13 12 12 13 14 14 13 13 14 13 14 14 15 15 15 13 12 11 11 12 13 14 15 17 19 20 24 25 24 23 21 20 18 16 14 12 10 9 8 7 7 6 4 3 2 2 1 1 1
13 12 12 15 14 14 13 12 15 14 14 15 16 16 15 14 13 13 14 15 14 15 17 17 18 21 24 26 26 25 23 21 19 17 16 14 11 10 9 8 8 7 5 4 2 2 2 1 1
13 13 13 16 15 14 13 13 15 15 15 16 17 16 15 15 14 14 14 15 15 16 18 18 18 20 23 26 26 26 24 23 20 18 17 15 13 11 11 10 9 7 6 5 4 3 2 1 1
14 14 14 15 16 14 14 14 15 16 16 17 17 16 15 14 14 14 14 14 15 15 18 18 18 20 22 25 26 26 25 23 22 20 18 16 14 12 11 10 9 8 7 6 5 4 3 2 2
15 14 15 16 16 15 15 15 16 16 17 17 17 15 14 13 13 14 13 14 14 16 17 19 18 19 21 24 25 26 26 24 22 20 19 17 15 14 12 11 10 9 8 7 6 5 4 3 2
16 15 15 16 16 14 14 14 15 16 16 15 15 13 12 12 12 12 11 12 13 15 17 18 19 19 20 23 24 25 26 26 24 22 20 19 17 15 13 12 11 10 9 8 8 6 5 4 3
16 16 16 16 15 14 13 13 14 14 14 13 14 13 12 11 10 10 9 9 10 12 14 17 18 19 20 22 24 24 26 26 25 23 21 20 18 17 15 14 13 12 11 10 9 7 6 5 4
16 16 16 15 14 14 13 11 12 14 14 13 14 13 11 11 9 9 8 8 9 11 12 16 17 18 20 22 23 23 24 24 24 23 22 21 20 18 17 16 15 13 12 11 10 9 8 7 6
17 16 16 15 13 12 13 11 11 13 14 13 12 12 11 10 9 8 7 7 8 9 11 15 16 17 19 21 22 23 24 24 24 24 22 22 21 20 18 17 16 15 14 13 12 11 10 9 8
17 16 15 14 13 13 13 12 10 13 14 13 12 11 10 9 8 7 7 7 7 8 9 12 14 15 17 20 22 23 24 24 23 23 22 23 22 21 20 18 17 16 15 15 14 12 11 11 10
17 15 13 12 12 13 14 12 11 12 12 12 11 9 8 8 7 7 6 7 6 6 8 10 12 14 15 19 21 23 24 24 23 22 22 23 23 22 21 19 18 17 17 16 15 14 13 12 12
17 16 15 13 12 13 14 12 11 12 11 11 10 8 8 7 7 7 7 6 6 6 7 9 11 12 14 18 20 22 23 24 22 21 22 22 23 22 22 20 19 19 18 17 17 16 15 14 14
18 18 17 16 14 13 13 12 12 12 11 10 9 8 7 7 6 6 6 5 5 5 6 8 9 11 13 17 20 21 22 22 21 21 21 21 21 22 22 21 20 20 19 18 18 17 16 16 16
18 18 18 17 15 13 12 12 11 12 11 10 9 8 7 7 6 6 4 4 5 5 6 7 8 10 12 15 18 20 21 22 21 20 20 20 20 21 22 22 21 21 20 20 19 18 18 18 19
20 20 19 18 18 15 12 12 13 12 12 11 10 8 8 8 7 6 6 4 4 5 6 7 9 10 12 14 15 16 18 19 19 19 19 20 20 20 21 22 22 20 20 20 20 20 20 21 21
21 22 21 20 19 18 15 14 14 13 14 13 11 10 8 8 8 8 7 5 5 5 5 7 8 9 11 13 14 15 16 17 18 20 20 20 20 20 21 21 21 20 21 21 21 21 22 23 23
Wind_Direction
2 5 10 19 24 29 30 27 21 13 11 11 5 189 173 185 191 192 190 188 183 179 176 173 170 173 177 177 173 160 148 138 128 121 115 109 103 98 94 89 85 85 88 91 94 96 97 98 102
357 359 5 15 23 26 16 20 21 14 5 5 358 296 187 204 205 205 201 198 194 189 184 181 179 179 183 185 181 168 156 145 133 126 119 112 106 101 98 92 88 88 89 90 95 100 104 105 109
350 354 359 9 19 19 359 355 358 359 356 356 354 311 284 259 229 212 207 205 204 197 194 191 188 185 187 188 184 174 164 153 141 132 123 115 109 105 102 96 92 92 91 89 93 100 105 108 111
342 348 353 1 6 2 348 337 340 348 348 342 332 308 288 278 251 227 216 214 210 205 203 199 196 193 192 190 187 181 171 159 148 139 128 119 114 110 107 102 96 93 92 90 90 98 103 109 115
334 340 348 351 347 343 337 333 334 335 338 336 331 322 310 296 274 245 230 226 216 209 206 204 202 200 197 195 192 188 180 170 157 147 137 126 120 113 112 110 100 95 91 88 87 93 103 112 122
325 333 343 331 331 331 330 327 328 327 326 326 324 324 322 310 293 272 248 235 223 215 210 206 206 207 205 203 201 196 189 180 168 157 148 136 127 121 119 116 109 101 94 88 85 89 103 117 132
318 324 330 322 321 320 324 324 322 318 320 325 324 321 320 313 303 289 267 245 227 220 216 211 210 210 209 209 207 202 197 189 177 168 161 149 141 138 132 126 119 109 98 87 88 93 100 113 125
311 314 317 313 309 307 315 315 315 312 312 317 318 315 313 311 309 298 273 252 234 224 221 217 215 212 211 211 208 207 202 195 187 182 180 173 164 159 149 143 134 123 109 88 91 94 93 104 131
302 300 297 295 295 298 306 308 311 309 311 313 314 314 313 309 304 299 277 252 237 229 222 220 219 216 213 210 209 209 204 201 198 194 192 191 187 177 168 156 150 150 131 98 98 97 83 109 188
293 289 283 285 290 295 300 305 308 308 311 315 315 315 313 308 303 300 276 253 237 227 224 221 220 217 214 211 211 210 207 207 206 204 201 201 198 192 185 175 171 177 169 124 98 74 29 286 221
286 280 278 278 285 291 296 300 306 307 309 313 315 317 315 309 303 297 275 256 239 231 226 222 220 218 216 215 213 211 210 211 211 209 206 205 207 204 195 191 191 193 195 209 188 29 357 283 229
278 276 274 275 281 285 289 296 301 302 302 308 312 313 314 308 302 293 276 257 242 232 227 224 220 219 218 217 214 213 212 214 212 211 211 213 213 210 208 205 203 205 214 239 267 334 344 263 228
272 271 270 273 277 280 286 292 295 295 298 306 308 308 309 304 296 288 274 253 247 236 228 224 218 219 217 218 215 213 215 216 215 212 215 217 218 215 213 209 207 212 227 241 264 312 319 269 256
266 266 266 270 273 278 285 290 291 291 296 303 307 306 306 301 291 287 272 259 250 238 228 224 223 220 217 215 213 214 217 218 216 218 218 219 220 217 215 212 210 217 226 230 246 277 288 273 257
262 261 263 268 273 278 286 289 289 293 297 300 304 304 303 296 288 280 268 262 255 241 230 229 227 223 218 215 216 216 217 219 219 220 220 219 218 216 217 215 215 218 221 226 247 260 230 243 243
259 256 257 267 272 277 282 283 289 295 298 300 302 302 300 293 285 279 272 266 258 241 230 228 228 225 220 217 217 217 218 220 220 220 221 220 221 222 218 216 218 219 222 222 232 224 206 215 219
255 249 250 263 272 276 279 278 285 293 297 301 303 301 296 294 289 284 277 270 258 245 232 227 228 222 217 217 218 218 219 220 220 219 221 222 225 224 220 217 218 220 219 216 212 194 190 204 206
246 246 251 258 270 276 278 280 284 290 295 301 304 303 299 295 289 286 277 271 259 248 236 231 228 223 218 217 218 218 220 220 219 219 222 223 225 222 220 216 217 220 219 217 208 196 195 206 207
245 247 250 257 270 277 279 281 284 289 294 298 302 303 300 297 292 287 279 269 258 246 238 234 229 223 218 216 218 220 220 220 217 218 222 224 225 223 221 218 218 219 215 210 203 202 208 214 214
245 247 250 259 269 277 280 281 285 290 293 296 300 300 297 298 299 293 285 271 255 245 235 228 223 223 221 219 217 218 218 217 217 219 222 223 224 224 224 222 219 216 213 210 210 211 215 214 219
244 245 249 257 270 279 283 286 287 288 292 293 296 299 298 302 302 297 288 273 259 247 234 224 224 225 225 222 221 220 219 218 218 219 221 222 224 225 228 224 218 217 217 215 214 217 218 218 222
241 245 250 259 268 275 280 279 285 287 290 293 296 300 297 301 301 297 293 284 268 252 239 226 223 224 223 223 221 221 219 217 218 220 222 224 223 224 226 223 219 221 219 217 219 221 221 225 229
239 245 251 259 267 272 280 280 283 285 289 296 298 301 297 298 302 298 294 289 277 258 241 227 225 222 222 220 218 217 216 217 219 221 223 225 224 224 225 221 223 222 220 221 224 225 227 231 233
243 249 257 264 269 274 274 276 281 286 291 295 298 302 301 295 298 297 290 287 282 261 237 227 226 222 219 217 216 214 214 217 219 222 224 223 223 224 223 223 225 225 225 227 228 231 234 238 239
244 247 255 265 270 273 271 273 278 282 290 295 300 303 303 294 296 299 294 289 277 256 237 229 225 224 222 217 215 213 215 216 217 220 222 222 222 223 224 227 229 229 229 229 233 235 239 244 246
244 243 242 247 257 264 272 272 276 280 286 292 297 300 304 297 295 298 293 286 275 257 242 231 225 223 220 215 215 215 216 215 217 221 223 223 224 226 227 230 233 232 231 233 237 240 243 246 249
241 242 241 248 255 261 265 271 274 276 279 286 293 295 302 302 300 303 286 274 275 268 247 231 225 221 218 215 213 214 214 217 220 223 222 222 224 226 230 231 233 232 234 238 242 244 247 249 251
239 242 245 246 252 259 268 274 272 270 272 278 288 293 295 293 295 303 295 282 278 273 249 231 228 223 217 213 212 214 215 216 220 224 223 223 226 228 230 231 231 233 236 240 243 246 250 253 256
244 245 249 248 246 251 259 266 266 262 264 270 275 282 286 283 283 288 294 289 284 273 252 237 231 226 221 213 213 215 216 218 222 222 224 227 229 232 234 231 234 236 238 243 248 253 256 258 258
245 245 248 250 253 254 254 259 260 258 257 262 265 268 273 279 276 276 280 285 288 271 253 240 233 226 222 218 216 215 216 220 224 224 228 231 232 236 235 233 235 238 244 248 251 256 259 260 260
Height
5897 5896 5896 5896 5896 5896 5895 5894 5893 5892 5891 5890 5889 5889 5888 5888 5889 5891 5889 5888 5888 5889 5889 5891 5892 5893 5894 5894 5895 5895 5895 5895 5895 5896 5896 5896 5896 5896 5896 5897 5897 5897 5897 5897 5897 5897 5897 5896 5896
5896 5896 5896 5896 5896 5896 5895 5894 5893 5892 5891 5889 5888 5888 5887 5887 5886 5887 5886 5886 5887 5888 5889 5890 5891 5892 5893 5894 5895 5895 5895 5895 5896 5896 5896 5897 5897 5897 5897 5897 5897 5897 5897 5897 5897 5897 5897 5897 5896
5896 5895 5896 5896 5895 5896 5895 5893 5892 5891 5890 5889 5888 5887 5886 5886 5885 5885 5885 5885 5886 5887 5888 5889 5890 5892 5893 5894 5894 5895 5895 5895 5896 5896 5896 5897 5897 5897 5897 5897 5897 5897 5897 5897 5897 5897 5897 5897 5897
5895 5895 5895 5895 5894 5894 5894 5893 5891 5890 5889 5888 5887 5886 5885 5884 5884 5883 5883 5884 5884 5885 5887 5888 5890 5891 5892 5893 5894 5894 5895 5895 5896 5896 5896 5897 5897 5897 5898 5898 5898 5898 5898 5897 5897 5897 5897 5897 5897
5894 5894 5894 5894 5893 5893 5892 5891 5890 5890 5889 5887 5886 5884 5883 5883 5882 5882 5882 5882 5883 5884 5885 5887 5888 5890 5891 5892 5893 5894 5895 5895 5896 5896 5897 5897 5897 5898 5898 5898 5898 5898 5898 5897 5897 5897 5897 5897 5897
5893 5893 5894 5893 5892 5892 5891 5890 5889 5889 5888 5886 5885 5883 5882 5882 5881 5880 5880 5880 5881 5882 5884 5885 5887 5889 5890 5891 5892 5893 5894 5895 5895 5896 5897 5897 5897 5898 5898 5898 5898 5898 5898 5897 5897 5897 5897 5897 5897
5892 5892 5892 5892 5891 5890 5890 5889 5888 5887 5886 5885 5883 5882 5881 5880 5879 5878 5878 5878 5879 5880 5882 5883 5885 5887 5889 5890 5891 5892 5893 5894 5895 5896 5896 5897 5897 5897 5898 5898 5898 5898 5898 5897 5897 5897 5897 5897 5897
5889 5890 5890 5889 5889 5889 5888 5887 5886 5886 5884 5883 5882 5880 5879 5878 5877 5876 5876 5876 5877 5878 5880 5881 5883 5885 5887 5888 5890 5891 5892 5894 5894 5895 5896 5896 5897 5897 5897 5897 5897 5897 5897 5897 5897 5897 5897 5897 5897
5887 5889 5888 5888 5887 5887 5886 5885 5885 5884 5883 5881 5879 5878 5877 5876 5875 5874 5874 5874 5874 5875 5877 5879 5881 5882 5884 5886 5888 5889 5891 5892 5893 5894 5895 5895 5896 5896 5896 5897 5897 5897 5897 5897 5897 5897 5896 5896 5896
5885 5886 5886 5885 5885 5885 5884 5883 5883 5882 5880 5878 5877 5875 5874 5873 5872 5872 5871 5871 5872 5873 5874 5876 5878 5880 5882 5884 5885 5887 5889 5890 5892 5893 5894 5894 5895 5895 5896 5896 5896 5897 5896 5896 5896 5896 5896 5896 5896
5882 5883 5882 5882 5882 5882 5882 5881 5880 5879 5878 5876 5874 5873 5871 5870 5869 5869 5868 5869 5869 5870 5871 5873 5874 5876 5879 5881 5883 5885 5887 5888 5890 5891 5892 5893 5893 5894 5895 5895 5896 5896 5896 5896 5896 5896 5895 5895 5895
5879 5879 5879 5879 5879 5879 5879 5879 5878 5877 5876 5874 5872 5870 5869 5867 5866 5865 5865 5865 5866 5867 5868 5869 5871 5873 5875 5878 5880 5882 5884 5886 5888 5889 5891 5892 5892 5893 5894 5895 5895 5895 5895 5895 5895 5895 5895 5895 5895
5876 5877 5876 5876 5877 5877 5877 5876 5876 5875 5873 5871 5869 5868 5866 5865 5863 5862 5862 5861 5862 5863 5864 5865 5867 5869 5872 5874 5877 5879 5882 5884 5886 5888 5889 5890 5891 5892 5893 5894 5894 5895 5895 5895 5895 5895 5895 5894 5894
5874 5874 5874 5874 5874 5874 5874 5874 5873 5872 5870 5869 5867 5865 5864 5862 5860 5859 5859 5859 5859 5860 5861 5863 5864 5866 5868 5871 5874 5877 5879 5881 5883 5885 5887 5888 5890 5891 5892 5892 5893 5894 5894 5894 5894 5894 5894 5894 5894
5871 5871 5872 5871 5871 5871 5872 5872 5870 5869 5868 5867 5865 5863 5861 5859 5857 5856 5856 5855 5856 5856 5857 5859 5861 5863 5865 5868 5871 5873 5876 5879 5881 5883 5885 5887 5888 5889 5890 5891 5892 5893 5893 5894 5894 5894 5894 5894 5894
5868 5869 5870 5869 5869 5868 5871 5871 5868 5867 5865 5864 5862 5860 5858 5856 5854 5853 5852 5852 5852 5852 5854 5855 5856 5858 5861 5864 5867 5870 5873 5876 5879 5881 5883 5885 5886 5888 5889 5890 5891 5892 5892 5893 5893 5893 5894 5894 5894
5865 5866 5867 5867 5866 5866 5867 5867 5865 5864 5863 5861 5859 5857 5855 5853 5851 5850 5848 5848 5848 5849 5850 5851 5853 5854 5857 5860 5863 5867 5870 5874 5876 5879 5881 5883 5885 5886 5888 5889 5890 5891 5891 5892 5893 5893 5893 5894 5894
5863 5863 5864 5864 5863 5863 5863 5863 5862 5861 5860 5858 5856 5854 5851 5849 5848 5846 5845 5844 5844 5845 5846 5847 5849 5851 5854 5857 5860 5864 5867 5871 5874 5876 5879 5881 5883 5884 5885 5887 5888 5889 5890 5891 5892 5892 5893 5893 5893
5858 5859 5860 5860 5859 5860 5860 5860 5859 5857 5856 5855 5853 5850 5848 5846 5844 5843 5841 5840 5840 5841 5842 5844 5846 5848 5850 5854 5857 5861 5864 5868 5871 5874 5876 5878 5880 5882 5883 5885 5887 5888 5889 5890 5891 5892 5892 5893 5893
5854 5855 5857 5857 5856 5857 5857 5856 5855 5854 5853 5851 5850 5847 5845 5844 5842 5839 5838 5837 5836 5836 5838 5839 5842 5845 5847 5851 5854 5858 5861 5865 5868 5871 5873 5876 5878 5880 5881 5884 5885 5886 5888 5889 5890 5891 5891 5892 5892
5850 5852 5853 5853 5853 5854 5854 5854 5853 5851 5849 5848 5846 5845 5843 5841 5839 5837 5835 5834 5833 5832 5834 5836 5838 5841 5844 5847 5850 5854 5858 5861 5864 5868 5870 5873 5875 5877 5879 5882 5883 5885 5886 5888 5889 5890 5891 5891 5891
5846 5848 5849 5850 5851 5852 5852 5852 5850 5848 5846 5845 5843 5841 5840 5838 5837 5835 5833 5832 5831 5831 5831 5832 5835 5837 5841 5844 5847 5850 5854 5858 5862 5864 5867 5869 5872 5875 5877 5879 5881 5883 5885 5886 5888 5889 5889 5890 5890
5842 5843 5845 5846 5847 5848 5848 5848 5849 5845 5843 5842 5841 5839 5837 5835 5834 5833 5831 5830 5829 5828 5828 5830 5831 5834 5837 5840 5843 5847 5851 5854 5858 5861 5864 5866 5869 5872 5874 5876 5879 5881 5883 5884 5886 5887 5888 5888 5889
5838 5840 5842 5843 5845 5846 5845 5845 5846 5843 5841 5840 5838 5836 5834 5833 5832 5831 5829 5828 5827 5826 5826 5827 5829 5831 5833 5836 5839 5843 5847 5851 5854 5857 5860 5863 5866 5869 5871 5874 5876 5878 5880 5882 5883 5885 5886 5886 5887
5835 5838 5840 5842 5843 5844 5842 5841 5842 5839 5838 5837 5836 5834 5832 5831 5830 5829 5828 5827 5826 5825 5825 5826 5828 5829 5830 5833 5836 5840 5844 5847 5851 5854 5857 5860 5863 5866 5869 5871 5874 5876 5878 5879 5881 5882 5883 5884 5885
5831 5834 5838 5840 5841 5841 5839 5838 5838 5835 5834 5834 5833 5832 5830 5829 5828 5827 5826 5825 5825 5824 5825 5825 5826 5826 5828 5830 5834 5837 5841 5844 5847 5851 5854 5857 5860 5863 5866 5868 5870 5873 5874 5876 5878 5879 5880 5881 5882
5827 5829 5833 5835 5835 5836 5836 5835 5834 5832 5832 5831 5830 5829 5829 5828 5827 5825 5824 5824 5824 5824 5823 5824 5824 5825 5826 5828 5831 5834 5838 5841 5845 5848 5850 5853 5856 5859 5862 5865 5867 5869 5871 5873 5875 5876 5877 5878 5879
5823 5825 5827 5829 5831 5832 5834 5833 5832 5829 5829 5829 5828 5827 5827 5826 5825 5824 5823 5823 5822 5822 5822 5822 5823 5824 5824 5826 5829 5832 5835 5839 5842 5845 5848 5850 5853 5855 5858 5861 5863 5865 5867 5869 5871 5872 5873 5874 5875
5818 5820 5821 5824 5826 5828 5830 5832 5827 5826 5826 5826 5826 5825 5825 5824 5824 5823 5823 5822 5821 5821 5821 5821 5821 5822 5823 5825 5827 5830 5833 5836 5839 5842 5845 5847 5850 5852 5855 5857 5860 5862 5864 5865 5867 5868 5869 5870 5870
5813 5815 5817 5819 5820 5822 5824 5828 5823 5822 5823 5823 5823 5823 5822 5822 5822 5822 5821 5821 5820 5820 5819 5819 5820 5820 5821 5823 5826 5828 5831 5834 5836 5839 5842 5844 5847 5849 5852 5854 5856 5858 5860 5861 5862 5863 5864 5864 5865